765  
ASUS45 KTFX 211910  
RWRMT  
MONTANA REGIONAL WEATHER ROUNDUP  
NATIONAL WEATHER SERVICE GREAT FALLS MT  
100 PM MDT SAT SEP 21 2019  
 
NOTE: "FAIR" INDICATES FEW OR NO CLOUDS BELOW 12,000 FEET WITH NO  
SIGNIFICANT WEATHER AND/OR S TO VISIBILITY
.  
 
MTZ001>007-043-212000-  
WEST OF THE DIVIDE  
 
CITY SKY/WX TMP DP RH WIND PRES REMARKS
 
KALISPELL CLOUDY 59 46 62 S7 30.04F  
MISSOULA CLOUDY 59 44 57 CALM 30.08F  
BUTTE CLOUDY 49 40 71 NW7 30.13F  
ANACONDA N/A 54 37 54 NW5 30.09F  
DEER LODGE N/A 54 45 71 SE6 30.11F  
HAMILTON PTSUNNY 57 41 54 SW7 30.11F  
LIBBY N/A 57 50 77 CALM 30.05F  
MULLAN PASS CLOUDY 44 41 89 VRB3 30.14S  
RONAN N/A 59 46 63 S6 30.06F  

 
 
MTZ008-052>055-212000-  
SOUTHWEST MONTANA  
 
CITY SKY/WX TMP DP RH WIND PRES REMARKS
 
BOZEMAN FAIR 53 44 71 CALM 30.11F  
DILLON CLOUDY 54 41 61 SW10 30.10F  
ENNIS PTSUNNY 52 39 62 SE12 30.16F  
W YELLOWSTONE PTSUNNY 41 39 93 SW8 30.16S  

 
 
MTZ009-010-012-014-046-048-049-054-212000-  
EAST SLOPES AND CENTRAL MONTANA  
 
CITY SKY/WX TMP DP RH WIND PRES REMARKS
 
CUT BANK CLOUDY 60 39 45 W10 29.96F  
GREAT FALLS FAIR 60 42 51 SW10G20 30.00F  
HELENA FAIR 61 42 49 W14G22 30.03F  
MALMSTROM AFB FAIR 58 44 58 SW12 30.01F  
BOWMANS CORNER FAIR 58 44 58 S16 29.99F  
CHOTEAU N/A 61 43 51 S8 29.98F  
FAIRFIELD FAIR 59 44 56 SW8 29.99F  
POWER FAIR 58 43 58 SW8 29.99F  
ULM FAIR 59 45 58 W7 30.00F  
WHITE SULPHUR N/A 50 43 76 S6 30.06F  

 
 
MTZ011-013-016-021-045-047-050-051-212000-  
NORTH CENTRAL MONTANA  
 
CITY SKY/WX TMP DP RH WIND PRES REMARKS
 
HAVRE FAIR 64 42 44 SW14 29.95F  
LEWISTOWN CLOUDY 53 42 66 NW8 30.02F  
CHINOOK N/A 63 39 42 W12G20 29.95F  
DENTON FAIR 56 41 58 W5 29.98F  
FORT BENTON N/A 61 45 55 SE12 30.00F  
GEYSER PTSUNNY 55 42 60 W12 30.01F  
N BAR RANCH PTSUNNY 55 41 58 W10G16 30.04S  
STANFORD CLOUDY 52 41 64 NW7 30.03F  
WINIFRED PTSUNNY 55 43 63 W10 30.00F  

 
 
MTZ017>020-022>027-061-062-212000-  
NORTHEAST MONTANA  
 
CITY SKY/WX TMP DP RH WIND PRES REMARKS
 
GLASGOW FAIR 62 45 53 NW15 29.89S  
CIRCLE N/A 55 52 88 NW13 29.89  
CULBERTSON N/A 55 50 82 NW8 29.83S  
GLENDIVE LGT RAIN 52 50 93 NW14 29.90R  
JORDAN N/A 59 49 69 NW15 29.94S  
MALTA PTSUNNY 64 41 42 W12G18 29.90F  
POPLAR N/A 57 46 67 N14G21 29.86S  
SCOBEY N/A 60 42 51 NW10 29.86S  
SIDNEY LGT RAIN 54 51 90 NW16 29.85R  
WOLF POINT FAIR 64 47 53 N16G22 29.88R  

 
 
MTZ028>42-056>058-212000-  
SOUTHCENTRAL AND SOUTHEAST MONTANA  
 
CITY SKY/WX TMP DP RH WIND PRES REMARKS
 
BAKER HVY RAIN 52 49 89 NW16G25 29.89R FOG  
BIG TIMBER MOSUNNY 52 41 66 W26 30.07S  
BILLINGS PTSUNNY 59 45 59 W13 30.03F  
FORSYTH N/A 55 50 82 W12G21 29.97S  
HARLOWTON LGT RAIN 52 43 71 W15G22 30.04F  
LAUREL N/A 61 45 55 W12 30.04F  
LIVINGSTON LGT RAIN 51 40 65 SW15 30.08F  
MILES CITY LGT RAIN 54 49 83 NW23G32 29.93R  

 
 
REGIONAL REPORTS...DAKOTAS/MN  
 
CITY SKY/WX TMP DP RH WIND PRES REMARKS
 
WILLISTON CLOUDY 57 50 77 NW18G25 29.81R  
MINOT HVY RAIN 54 51 90 W8 29.75F FOG  
DICKINSON CLOUDY 60 49 66 NW16G25 29.77S  
BEACH DRIZZLE 52 52 100 NW23G29 29.87R  
CROSBY FAIR 55 52 88 NW17G24 29.80S  
HETTINGER CLOUDY 62 51 67 W21G31 29.82S  
TIOGA LGT RAIN 54 54 100 NW14 29.79F  
WATFORD CITY PTSUNNY 57 55 94 N16 29.79R  
BISMARCK CLOUDY 63 56 78 NW14 29.72R  
GRAND FORKS CLOUDY 68 61 78 S3 29.61S  
FARGO CLOUDY 76 63 64 SW15 29.62S  
BUFFALO SD N/A 62 45 53 W28G35 29.82R  
RAPID CITY FAIR 65 40 39 W24G36 29.90R  
INTL FALLS PTSUNNY 76 67 73 SW14G28 29.60F  
DULUTH PTSUNNY 73 66 78 SW15G25 29.73F  
MINNEAPOLIS LGT RAIN 76 70 82 S14 29.76F  

 
 
REGIONAL REPORTS...WY/ID/WA  
 
CITY SKY/WX TMP DP RH WIND PRES REMARKS
 
BUFFALO WY PTSUNNY 52 37 56 N24G36 30.05S  
CODY CLOUDY 52 42 69 NE6 30.09S  
GILLETTE FAIR 56 41 57 NW29G39 29.99R  
POWELL PTSUNNY 52 37 58 CALM 30.07  
SHERIDAN CLOUDY 55 41 59 NW18 30.04R  
YELLOWSTONE LA N/A 36 35 96 VRB5 30.21R  
BOISE FAIR 64 44 48 NW9 30.14F  
COUER D'ALENE CLOUDY 59 48 67 SE7 30.11F  
IDAHO FALLS PTSUNNY 53 43 68 SW15 30.18F  
SALMON PTSUNNY 55 43 63 CALM 30.13F  
SPOKANE PTSUNNY 61 46 57 SW9 30.09F  
SEATTLE CLOUDY 63 53 70 SW7 30.13F  

 
 
REGIONAL REPORTS...ALBERTA  
 
CITY SKY/WX TMP DP RH WIND PRES REMARKS
 
CALGARY PTSUNNY 61 37 41 W3 29.90F  
CARDSTON N/A 61 39 44 W13G18 N/A  
CROWSNEST PASS N/A 57 43 58 W13G22 N/A  
EDMONTON PTSUNNY 61 46 59 S9 29.80F  
FORT MCMURRAY SUNNY 66 45 45 S15 29.61F  
HIGH LEVEL PTSUNNY 61 48 63 S6 29.49F  
LETHBRIDGE PTSUNNY 64 41 42 W17 29.92F  
LLOYDMINSTER MOSUNNY 63 43 48 W13G18 29.83F  
MEDICINE HAT MOSUNNY 64 41 42 W9 29.91F  
MILK RIVER N/A 66 41 39 W6 N/A  
ONEFOUR N/A 61 39 44 W9 N/A  
PEACE RIVER PTSUNNY 70 46 43 W21G30 29.64F  
PINCHER CREEK PTSUNNY 61 41 48 W17G26 29.94F  
RAYMOND N/A 63 41 45 W18 N/A  
WATERTON GATE N/A 57 39 51 SW17G29 N/A  
FORT SMITH NWT PTSUNNY 61 45 55 SE12G20 29.51F  

 
 
REGIONAL REPORTS...SASKATCHEWAN  
 
CITY SKY/WX TMP DP RH WIND PRES REMARKS
 
ASSINIBOIA N/A 59 39 47 NW18G24 N/A  
CORONACH N/A 61 41 48 NW16G22 N/A  
CYPRESS HILLS N/A 54 34 47 NW7 N/A  
ESTEVAN CLOUDY 55 50 82 NW16G22 29.77R  
LA RONGE N/A 57 43 58 NW10 N/A  
MOOSE JAW N/A 61 43 51 NW14G20 N/A  
PRINCE ALBERT PTSUNNY 59 46 63 NW9 29.81F  
REGINA PTSUNNY 59 46 63 N17G25 29.81F  
ROCKGLEN N/A 57 39 51 NW13G21 N/A  
SASKATOON PTSUNNY 59 46 63 NW9G18 29.82F  
SWIFT CURRENT PTSUNNY 59 39 47 N15G23 29.88F  
VAL MARIE N/A 63 39 42 NW13 N/A  

 
 
 
CLICK HERE TO GO TO PREVIOUS BULLETINS.

The Nexlab MT Page Main Text Page